When you browse on this site, cookies collect data to enhance your experience and personalize the content and advertising you see.
Visit our Privacy Policy to learn more. By continuing to use the site, you agree to this use of cookies and data.
  • în România
  • Lista ţărilor
  • Pe 7 zile
  • Temperatura apei
  • Hartă satelitară
  • Meteo pe hartă
  • Widget-uri
  • user-avatar
    Intrare

    Meteo pe oră la Sucre

    Astăzi, 25 Mai, Sâmbătă

    Timp Temperatura Precipitaţii Vânt Presiune Umiditate
    00:00 +9°C° 0 mm 1 m/s 540 mmHg 62%
    01:00 +9°C° 0 mm 1 m/s 539 mmHg 64%
    02:00 +8°C° 0 mm 1 m/s 539 mmHg 68%
    03:00 +8°C° 0 mm 1 m/s 539 mmHg 67%
    04:00 +7°C° 0 mm 1 m/s 538 mmHg 67%
    05:00 +6°C° 0 mm 0 m/s 538 mmHg 67%
    06:00 +8°C° 0 mm 0 m/s 539 mmHg 58%
    07:00 +9°C° 0 mm 0 m/s 540 mmHg 50%
    08:00 +12°C° 0 mm 1 m/s 541 mmHg 39%
    09:00 +14°C° 0 mm 1 m/s 542 mmHg 33%
    10:00 +16°C° 0 mm 2 m/s 542 mmHg 27%
    11:00 +18°C° 0 mm 2 m/s 543 mmHg 21%
    12:00 +19°C° 0 mm 2 m/s 543 mmHg 20%
    13:00 +20°C° 0 mm 3 m/s 543 mmHg 19%
    14:00 +21°C° 0 mm 3 m/s 543 mmHg 18%
    15:00 +21°C° 0 mm 3 m/s 542 mmHg 21%
    16:00 +20°C° 0 mm 3 m/s 542 mmHg 24%
    17:00 +19°C° 0 mm 3 m/s 541 mmHg 27%
    18:00 +17°C° 0 mm 2 m/s 541 mmHg 34%
    19:00 +15°C° 0 mm 2 m/s 540 mmHg 41%
    20:00 +13°C° 0 mm 1 m/s 540 mmHg 47%
    21:00 +13°C° 0 mm 1 m/s 539 mmHg 48%
    22:00 +12°C° 0 mm 1 m/s 539 mmHg 49%
    23:00 +12°C° 0 mm 1 m/s 539 mmHg 50%

    Mâine, 26 Mai, Duminică

    Timp Temperatura Precipitaţii Vânt Presiune Umiditate
    00:00 +11°C° 0 mm 1 m/s 539 mmHg 47%
    01:00 +11°C° 0 mm 1 m/s 539 mmHg 45%
    02:00 +11°C° 0 mm 1 m/s 538 mmHg 42%
    03:00 +10°C° 0 mm 1 m/s 538 mmHg 38%
    04:00 +10°C° 0 mm 1 m/s 538 mmHg 33%
    05:00 +10°C° 0 mm 1 m/s 538 mmHg 28%
    06:00 +11°C° 0 mm 1 m/s 539 mmHg 26%
    07:00 +12°C° 0 mm 1 m/s 540 mmHg 23%
    08:00 +14°C° 0 mm 2 m/s 541 mmHg 21%
    09:00 +16°C° 0 mm 2 m/s 542 mmHg 17%
    10:00 +18°C° 0 mm 2 m/s 543 mmHg 13%
    11:00 +20°C° 0 mm 2 m/s 544 mmHg 9%
    12:00 +21°C° 0 mm 3 m/s 543 mmHg 9%
    13:00 +22°C° 0 mm 3 m/s 543 mmHg 9%
    14:00 +23°C° 0 mm 4 m/s 543 mmHg 9%
    15:00 +24°C° 0 mm 3 m/s 543 mmHg 10%
    16:00 +22°C° 0 mm 3 m/s 542 mmHg 12%
    17:00 +23°C° 0 mm 2 m/s 542 mmHg 13%
    18:00 +19°C° 0 mm 2 m/s 541 mmHg 17%
    19:00 +18°C° 0 mm 1 m/s 540 mmHg 22%
    20:00 +14°C° 0 mm 1 m/s 540 mmHg 27%
    21:00 +14°C° 0 mm 1 m/s 540 mmHg 30%
    22:00 +13°C° 0 mm 1 m/s 540 mmHg 34%
    23:00 +12°C° 0 mm 0 m/s 540 mmHg 37%

    Poimâine, 27 Mai, Luni

    Timp Temperatura Precipitaţii Vânt Presiune Umiditate
    00:00 +12°C° 0 mm 1 m/s 539 mmHg 38%
    01:00 +12°C° 0 mm 1 m/s 539 mmHg 40%
    02:00 +11°C° 0 mm 1 m/s 539 mmHg 41%
    03:00 +11°C° 0 mm 1 m/s 538 mmHg 41%
    04:00 +10°C° 0 mm 1 m/s 538 mmHg 41%
    05:00 +10°C° 0 mm 1 m/s 538 mmHg 42%
    06:00 +11°C° 0 mm 1 m/s 539 mmHg 38%
    07:00 +13°C° 0 mm 1 m/s 540 mmHg 35%
    08:00 +14°C° 0 mm 1 m/s 541 mmHg 31%
    09:00 +16°C° 0 mm 1 m/s 542 mmHg 26%
    10:00 +19°C° 0 mm 1 m/s 543 mmHg 20%
    11:00 +21°C° 0 mm 1 m/s 543 mmHg 14%
    12:00 +21°C° 0 mm 2 m/s 543 mmHg 14%
    13:00 +21°C° 0 mm 3 m/s 543 mmHg 13%
    14:00 +22°C° 0 mm 4 m/s 543 mmHg 13%
    15:00 +22°C° 0 mm 4 m/s 542 mmHg 16%
    16:00 +21°C° 0 mm 3 m/s 542 mmHg 20%
    17:00 +21°C° 0 mm 3 m/s 541 mmHg 23%
    18:00 +18°C° 0 mm 3 m/s 541 mmHg 34%
    19:00 +16°C° 0 mm 2 m/s 540 mmHg 44%
    20:00 +14°C° 0 mm 2 m/s 540 mmHg 55%
    21:00 +14°C° 0 mm 1 m/s 540 mmHg 61%
    22:00 +13°C° 0 mm 1 m/s 540 mmHg 68%
    23:00 +12°C° 0 mm 1 m/s 540 mmHg 74%

    28 Mai, Marţi

    Timp Temperatura Precipitaţii Vânt Presiune Umiditate
    00:00 +12°C° 0 mm 1 m/s 540 mmHg 74%
    01:00 +12°C° 0 mm 1 m/s 539 mmHg 75%
    02:00 +11°C° 0 mm 1 m/s 539 mmHg 75%
    03:00 +11°C° 0 mm 1 m/s 539 mmHg 72%
    04:00 +10°C° 0 mm 1 m/s 539 mmHg 69%
    05:00 +9°C° 0 mm 0 m/s 538 mmHg 66%
    06:00 +10°C° 0 mm 0 m/s 539 mmHg 59%
    07:00 +11°C° 0 mm 0 m/s 540 mmHg 53%
    08:00 +12°C° 0 mm 0 m/s 541 mmHg 46%
    09:00 +15°C° 0 mm 1 m/s 542 mmHg 37%
    10:00 +17°C° 0 mm 2 m/s 543 mmHg 28%
    11:00 +19°C° 0 mm 2 m/s 544 mmHg 20%
    12:00 +20°C° 0 mm 3 m/s 544 mmHg 19%
    13:00 +21°C° 0 mm 4 m/s 543 mmHg 18%
    14:00 +22°C° 0 mm 4 m/s 543 mmHg 17%
    15:00 +21°C° 0 mm 4 m/s 543 mmHg 21%
    16:00 +21°C° 0 mm 4 m/s 542 mmHg 25%
    17:00 +20°C° 0 mm 3 m/s 542 mmHg 29%
    18:00 +18°C° 0 mm 3 m/s 541 mmHg 40%
    19:00 +16°C° 0 mm 2 m/s 541 mmHg 51%
    20:00 +15°C° 0 mm 1 m/s 541 mmHg 62%
    21:00 +14°C° 0 mm 1 m/s 540 mmHg 68%
    22:00 +13°C° 0 mm 1 m/s 540 mmHg 74%
    23:00 +13°C° 0 mm 1 m/s 540 mmHg 80%

    29 Mai, Miercuri

    Timp Temperatura Precipitaţii Vânt Presiune Umiditate
    00:00 +12°C° 0 mm 1 m/s 540 mmHg 81%
    01:00 +12°C° 0 mm 1 m/s 540 mmHg 81%
    02:00 +12°C° 0 mm 1 m/s 540 mmHg 81%
    03:00 +12°C° 0 mm 1 m/s 540 mmHg 79%
    04:00 +12°C° 0 mm 1 m/s 539 mmHg 76%
    05:00 +11°C° 0 mm 1 m/s 539 mmHg 74%
    06:00 +12°C° 0 mm 1 m/s 540 mmHg 67%
    07:00 +13°C° 0 mm 1 m/s 541 mmHg 60%
    08:00 +14°C° 0 mm 1 m/s 542 mmHg 53%
    09:00 +16°C° 0 mm 2 m/s 542 mmHg 44%
    10:00 +18°C° 0 mm 2 m/s 543 mmHg 35%
    11:00 +20°C° 0 mm 3 m/s 544 mmHg 26%
    12:00 +21°C° 0 mm 3 m/s 544 mmHg 24%
    13:00 +22°C° 0 mm 4 m/s 543 mmHg 22%
    14:00 +23°C° 0 mm 4 m/s 543 mmHg 19%
    15:00 +22°C° 0 mm 4 m/s 542 mmHg 23%
    16:00 +22°C° 0 mm 4 m/s 542 mmHg 27%
    17:00 +21°C° 0 mm 3 m/s 542 mmHg 30%
    18:00 +19°C° 0 mm 3 m/s 541 mmHg 40%
    19:00 +17°C° 0 mm 2 m/s 541 mmHg 50%
    20:00 +15°C° 0 mm 1 m/s 540 mmHg 61%
    21:00 +15°C° 0 mm 1 m/s 540 mmHg 65%
    22:00 +14°C° 0 mm 1 m/s 540 mmHg 69%
    23:00 +13°C° 0 mm 1 m/s 540 mmHg 74%

    30 Mai, Joi

    Timp Temperatura Precipitaţii Vânt Presiune Umiditate
    00:00 +13°C° 0 mm 1 m/s 540 mmHg 72%
    01:00 +13°C° 0 mm 1 m/s 539 mmHg 69%
    02:00 +12°C° 0 mm 1 m/s 539 mmHg 67%
    03:00 +12°C° 0 mm 1 m/s 539 mmHg 62%
    04:00 +11°C° 0 mm 1 m/s 539 mmHg 57%
    05:00 +11°C° 0 mm 1 m/s 538 mmHg 52%
    06:00 +12°C° 0 mm 1 m/s 540 mmHg 45%
    07:00 +14°C° 0 mm 1 m/s 541 mmHg 38%
    08:00 +15°C° 0 mm 1 m/s 542 mmHg 31%
    09:00 +18°C° 0 mm 1 m/s 543 mmHg 25%
    10:00 +20°C° 0 mm 1 m/s 543 mmHg 19%
    11:00 +22°C° 0 mm 1 m/s 544 mmHg 13%
    12:00 +23°C° 0 mm 2 m/s 544 mmHg 12%
    13:00 +24°C° 0 mm 3 m/s 544 mmHg 12%
    14:00 +25°C° 0 mm 3 m/s 543 mmHg 11%
    15:00 +25°C° 0 mm 3 m/s 543 mmHg 14%
    16:00 +24°C° 0 mm 3 m/s 542 mmHg 17%
    17:00 +24°C° 0 mm 2 m/s 542 mmHg 20%
    18:00 +20°C° 0 mm 2 m/s 541 mmHg 28%
    19:00 +18°C° 0 mm 2 m/s 541 mmHg 36%
    20:00 +16°C° 0 mm 1 m/s 540 mmHg 44%
    21:00 +15°C° 0 mm 1 m/s 540 mmHg 50%
    22:00 +14°C° 0 mm 1 m/s 540 mmHg 55%
    23:00 +13°C° 0 mm 1 m/s 540 mmHg 60%
    Arată mai mult